Tinker AFB, OK

11:39 AM CDT on August 18, 2017 (GMT -0500)
Tinker Air Force Base

Weather History for KTIK - October, 2012

Change the Weather History Date:

Monday, October 29, 2012

  Actual Average Record
Temperature  
Mean Temperature 50 °F -  
Max Temperature 66 °F 63 °F 84 °F (2004)
Min Temperature 36 °F 46 °F 36 °F (2012)
Degree Days  
Heating Degree Days 14    
Moisture  
Dew Point 28 °F    
Average Humidity 44    
Maximum Humidity 74    
Minimum Humidity 24    
Precipitation  
Precipitation 0.00 in - - ()
Sea Level Pressure  
Sea Level Pressure 30.21 in    
Wind  
Wind Speed 7 mph (South)    
Max Wind Speed 12 mph    
Max Gust Speed 17 mph    
Visibility 10 miles    
Events      
Averages and records for this station are not official NWS values.
T = Trace of Precipitation, MM = Missing Value Source: NWS Daily Summary

Daily Weather History Graph

Daily Weather History Graph

Search for Another Location

Airport or City:

Trip Planner

Search our weather history database for the weather conditions in past years. The results will help you decide how hot, cold, wet, or windy it might be!

Date:

Astronomy

Oct. 29, 2012 Rise Set
Actual Time 7:48 AM CDT 6:37 PM CDT
Civil Twilight 7:22 AM CDT 7:03 PM CDT
Nautical Twilight 6:52 AM CDT 7:33 PM CDT
Astronomical Twilight 6:23 AM CDT 8:02 PM CDT
Moon 6:31 PM CDT (10/29) 7:39 AM CDT (10/29)
Length of Visible Light 11h 40m
Length of Day
10h 48m
Full, 100% of the Moon is Illuminated
Oct 29
Full
Oct 29
Full
Nov 6
Last Quarter
Nov 13
New
Nov 20
First Quarter

Hourly Weather History & Observations

Time (CDT) Temp. Windchill Dew Point Humidity Pressure Visibility Wind Dir Wind Speed Gust Speed Precip Events Conditions
12:55 AM 41.4 °F 37.6 °F 26.6 °F 56% 30.27 in 10.0 mi SSE 5.8 mph - N/A   Clear
1:55 AM 43.2 °F 39.0 °F 25.0 °F 49% 30.26 in 10.0 mi SE 6.9 mph - N/A   Clear
2:55 AM 41.5 °F 37.1 °F 24.1 °F 50% 30.25 in 10.0 mi SE 6.9 mph - N/A   Clear
3:55 AM 40.8 °F 37.8 °F 25.3 °F 54% 30.26 in 10.0 mi South 4.6 mph - N/A   Clear
4:55 AM 40.3 °F 36.3 °F 27.1 °F 59% 30.25 in 10.0 mi SSE 5.8 mph - N/A   Clear
5:55 AM 36.9 °F 32.2 °F 28.6 °F 72% 30.26 in 10.0 mi South 5.8 mph - N/A   Clear
6:55 AM 36.5 °F 31.8 °F 28.8 °F 74% 30.26 in 10.0 mi South 5.8 mph - N/A   Clear
7:55 AM 36.0 °F 30.3 °F 25.7 °F 66% 30.26 in 10.0 mi South 6.9 mph - N/A   Clear
8:55 AM 42.3 °F 37.3 °F 29.5 °F 61% 30.29 in 10.0 mi South 8.1 mph - N/A   Clear
9:55 AM 49.1 °F - 27.0 °F 42% 30.30 in 10.0 mi South 10.4 mph - N/A   Clear
10:55 AM 53.6 °F - 28.6 °F 38% 30.29 in 10.0 mi South 6.9 mph - N/A   Clear
11:55 AM 58.3 °F - 28.0 °F 32% 30.27 in 10.0 mi South 10.4 mph - N/A   Clear
12:55 PM 60.4 °F - 28.6 °F 30% 30.25 in 10.0 mi South 11.5 mph - N/A   Clear
1:55 PM 63.0 °F - 28.8 °F 28% 30.21 in 10.0 mi SSW 10.4 mph 17.3 mph N/A   Clear
2:55 PM 64.2 °F - 29.1 °F 27% 30.17 in 10.0 mi South 10.4 mph - N/A   Clear
3:55 PM 65.5 °F - 28.2 °F 25% 30.14 in 10.0 mi SSW 10.4 mph - N/A   Clear
4:55 PM 64.4 °F - 27.0 °F 24% 30.14 in 10.0 mi SSW 9.2 mph - N/A   Clear
5:55 PM 64.2 °F - 27.0 °F 24% 30.12 in 10.0 mi South 9.2 mph - N/A   Clear
6:55 PM 58.1 °F - 27.3 °F 31% 30.12 in 10.0 mi South 6.9 mph - N/A   Clear
7:55 PM 56.1 °F - 29.7 °F 36% 30.13 in 10.0 mi South 8.1 mph - N/A   Clear
8:55 PM 52.0 °F - 28.4 °F 40% 30.13 in 10.0 mi South 8.1 mph - N/A   Clear
9:55 PM 51.3 °F - 29.5 °F 43% 30.12 in 10.0 mi South 9.2 mph - N/A   Clear
10:55 PM 50.7 °F - 29.3 °F 44% 30.12 in 10.0 mi South 8.1 mph - N/A   Clear
11:55 PM 46.8 °F - 32.4 °F 57% 30.09 in 10.0 mi South 11.5 mph - N/A   Clear